FW8409 Weather Reports


time (UTC)temp
C
wind
direction
speed
KPH
gust
KPH
rain 1hr
cm
rain 24hr
cm
rain mn
cm
humidity
%
barometer
mb
20260503203135 32 295 0.0 1.6 0.00 0.00 0.00 30 1013.5
20260503202130 31 254 0.0 1.6 0.00 0.00 0.00 30 1013.5
20260503201125 31 256 0.0 1.6 0.00 0.00 0.00 30 1013.5
20260503200123 31 259 0.0 4.8 0.00 0.00 0.00 31 1013.7
20260503195123 30 301 1.6 3.2 0.00 0.00 0.00 31 1013.9
20260503194121 30 259 0.0 1.6 0.00 0.00 0.00 34 1013.9
20260503193120 29 271 0.0 0.0 0.00 0.00 0.00 35 1014.1
20260503192117 28 261 0.0 3.2 0.00 0.00 0.00 35 1014.3
20260503191117 27 253 0.0 3.2 0.00 0.00 0.00 41 1014.3
20260503190117 26 269 0.0 1.6 0.00 0.00 0.00 48 1014.3
20260503185114 25 261 0.0 1.6 0.00 0.00 0.00 46 1014.3
20260503184112 25 260 0.0 3.2 0.00 0.00 0.00 47 1014.8
20260503183112 24 255 0.0 0.0 0.00 0.00 0.00 47 1014.9
20260503182108 23 264 0.0 3.2 0.00 0.00 0.00 49 1014.8
20260503181107 23 318 1.6 3.2 0.00 0.00 0.00 50 1014.9
20260503175056 22 250 0.0 0.0 0.00 0.00 0.00 56 1014.9
20260503174055 22 252 0.0 1.6 0.00 0.00 0.00 56 1015.2
20260503173053 21 255 0.0 3.2 0.00 0.00 0.00 57 1015.3
20260503172053 20 256 0.0 0.0 0.00 0.00 0.00 69 1015.6
20260503171053 20 256 0.0 0.0 0.00 0.00 0.00 67 1015.2
20260503131019 10 256 0.0 0.0 0.00 0.00 0.00 99 1015.6
20260503080925 13 264 0.0 0.0 0.00 0.00 0.00 94 1016.2
20260503072915 13 261 0.0 0.0 0.00 0.00 0.00 92 1016.5
20260503071915 13 261 0.0 0.0 0.00 0.00 0.00 92 1016.3
20260503070914 14 261 0.0 0.0 0.00 0.00 0.00 92 1016.2
20260503054854 15 261 0.0 0.0 0.00 0.00 0.00 86 1016.1
20260503053854 16 261 0.0 0.0 0.00 0.00 0.00 85 1016.2
20260503052853 16 263 0.0 0.0 0.00 0.00 0.00 84 1015.7
20260503051852 16 255 0.0 0.0 0.00 0.00 0.00 85 1016.1
20260503050852 16 257 0.0 0.0 0.00 0.00 0.00 83 1016.5
20260503045851 16 257 0.0 0.0 0.00 0.00 0.00 82 1016.5
20260503044850 16 259 0.0 0.0 0.00 0.00 0.00 81 1016.3
20260503043850 16 256 0.0 0.0 0.00 0.00 0.00 82 1016.1
20260503042849 16 260 0.0 0.0 0.00 0.00 0.00 81 1016.4
20260503041847 17 258 0.0 0.0 0.00 0.00 0.00 80 1016.4
20260503040842 17 260 0.0 1.6 0.00 0.00 0.00 80 1016.7
20260503035842 17 253 0.0 0.0 0.00 0.00 0.00 80 1016.4
20260503034842 17 258 0.0 0.0 0.00 0.00 0.00 80 1016.3
20260503033837 17 263 0.0 1.6 0.00 0.00 0.00 79 1016.2
20260503032832 17 263 0.0 0.0 0.00 0.00 0.00 79 1016.2
20260503031828 17 260 0.0 0.0 0.00 0.00 0.00 77 1015.9
20260503030827 18 255 0.0 0.0 0.00 0.00 0.00 76 1016.1
20260503025826 18 255 0.0 0.0 0.00 0.00 0.00 75 1016.2
20260503024826 18 271 0.0 1.6 0.00 0.00 0.00 74 1016.1
20260503023826 18 262 0.0 0.0 0.00 0.00 0.00 73 1016.0
20260503022826 19 262 0.0 0.0 0.00 0.00 0.00 72 1016.2
20260503021822 20 260 0.0 1.6 0.00 0.00 0.00 69 1016.1
20260503020822 21 260 0.0 1.6 0.00 0.00 0.00 68 1015.8
20260503015822 21 258 0.0 1.6 0.00 0.00 0.00 66 1015.4
20260503014820 21 263 0.0 0.0 0.00 0.00 0.00 68 1014.9
20260503013815 21 263 0.0 0.0 0.00 0.00 0.00 67 1015.1
20260503012810 22 263 0.0 0.0 0.00 0.00 0.00 67 1015.0
20260503011810 22 263 0.0 0.0 0.00 0.00 0.00 64 1014.9
20260503010809 23 261 0.0 0.0 0.00 0.00 0.00 65 1015.0
20260503005809 23 262 0.0 0.0 0.00 0.00 0.00 61 1015.0
20260503004808 23 260 0.0 0.0 0.00 0.00 0.00 62 1015.1
20260503003803 23 262 0.0 1.6 0.00 0.00 0.00 58 1015.1
20260503002803 23 254 0.0 1.6 0.00 0.00 0.00 59 1015.0
20260503001802 23 257 0.0 0.0 0.00 0.00 0.00 59 1015.3
20260503000802 23 253 0.0 0.0 0.00 0.00 0.00 57 1015.1
20260502235802 23 260 0.0 0.0 0.00 0.00 0.00 57 1015.2
20260502234802 23 264 0.0 1.6 0.00 0.00 0.00 58 1015.3
20260502233801 23 266 0.0 0.0 0.00 0.00 0.00 57 1015.4
20260502232800 23 265 0.0 1.6 0.00 0.00 0.00 60 1015.5
20260502231800 23 263 0.0 0.0 0.00 0.00 0.00 55 1015.7
20260502230756 23 261 0.0 1.6 0.00 0.00 0.00 55 1015.6
20260502225756 24 264 0.0 1.6 0.00 0.00 0.00 56 1015.6
20260502224755 23 262 0.0 1.6 0.00 0.00 0.00 57 1016.2
20260502223755 22 258 0.0 1.6 0.00 0.00 0.00 58 1016.3
20260502222751 22 268 0.0 1.6 0.00 0.00 0.00 58 1016.4
20260502221749 22 260 1.6 1.6 0.00 0.00 0.00 56 1016.5
20260502220749 22 261 0.0 1.6 0.00 0.00 0.00 60 1016.7
20260502215747 23 258 0.0 1.6 0.00 0.00 0.00 55 1016.9
20260502214742 21 243 0.0 1.6 0.00 0.00 0.00 60 1017.0
20260502213742 20 261 0.0 0.0 0.00 0.00 0.00 63 1017.0
20260502212738 20 264 0.0 1.6 0.00 0.00 0.00 62 1017.6
20260502211737 21 260 0.0 1.6 0.00 0.00 0.00 61 1017.5
20260502210737 20 257 0.0 1.6 0.00 0.00 0.00 62 1017.8
20260502205737 20 265 0.0 0.0 0.00 0.00 0.00 62 1017.8
20260502204737 20 307 1.6 1.6 0.00 0.00 0.00 63 1018.0
20260502203737 18 259 0.0 1.6 0.00 0.00 0.00 68 1018.2